Time,TemperatureF,DewpointF,PressureIn,WindDirection,WindDirectionDegrees,WindSpeedMPH,WindSpeedGustMPH,Humidity,HourlyPrecipIn,Conditions,Clouds,dailyrainin,SolarRadiationWatts/m^2,SoftwareType,DateUTC
2013-01-30 00:03:00,19.1,9.6,31.86,NNW,346,0.0,0.0,66,0.00,BKN,,0.00,0.0,WeatherDisplay:10.37,2013-01-30 07:03:00,
2013-01-30 00:09:00,18.8,9.3,31.86,North,350,0.0,0.0,66,0.00,BKN,,0.00,0.0,WeatherDisplay:10.37,2013-01-30 07:09:00,
2013-01-30 00:19:00,18.1,8.7,31.86,NNW,346,0.0,0.0,66,0.00,BKN,,0.00,0.0,WeatherDisplay:10.37,2013-01-30 07:19:00,
2013-01-30 00:24:00,17.9,8.5,31.86,NNW,346,0.0,1.0,66,0.00,BKN,,0.00,0.0,WeatherDisplay:10.37,2013-01-30 07:24:00,
2013-01-30 00:29:00,17.6,8.2,31.86,NNW,346,0.0,0.0,66,0.00,BKN,,0.00,0.0,WeatherDisplay:10.37,2013-01-30 07:29:00,
2013-01-30 00:34:00,17.3,8.3,31.86,NNW,346,0.0,0.0,67,0.00,BKN,,0.00,0.0,WeatherDisplay:10.37,2013-01-30 07:34:00,
2013-01-30 00:39:00,17.1,8.0,31.86,NNW,346,0.0,0.0,67,0.00,BKN,,0.00,0.0,WeatherDisplay:10.37,2013-01-30 07:39:00,
2013-01-30 00:44:00,17.0,7.9,31.86,NNW,346,0.0,0.0,67,0.00,BKN,,0.00,0.0,WeatherDisplay:10.37,2013-01-30 07:44:00,
2013-01-30 00:49:00,17.0,7.9,31.86,NNW,346,0.0,0.0,67,0.00,BKN,,0.00,0.0,WeatherDisplay:10.37,2013-01-30 07:49:00,
2013-01-30 00:54:00,17.0,7.9,31.86,NNW,346,0.0,0.0,67,0.00,BKN,,0.00,0.0,WeatherDisplay:10.37,2013-01-30 07:54:00,
2013-01-30 00:59:00,17.0,7.9,31.86,NNW,346,0.0,0.0,67,0.00,BKN,,0.00,0.0,WeatherDisplay:10.37,2013-01-30 07:59:00,
2013-01-30 01:04:00,17.0,7.9,31.86,NNW,346,0.0,0.0,67,0.00,BKN,,0.00,0.0,WeatherDisplay:10.37,2013-01-30 08:04:00,
2013-01-30 01:09:00,17.0,7.9,31.86,NNW,346,0.0,0.0,67,0.00,BKN,,0.00,0.0,WeatherDisplay:10.37,2013-01-30 08:09:00,
2013-01-30 01:14:00,17.0,7.9,31.86,NNW,346,0.0,0.0,67,0.00,BKN,,0.00,0.0,WeatherDisplay:10.37,2013-01-30 08:14:00,
2013-01-30 01:19:00,15.6,7.6,31.65,NNW,346,0.0,0.0,70,0.00,BKN,,0.00,0.0,WeatherDisplay:10.37,2013-01-30 08:19:00,
2013-01-30 01:24:00,15.4,7.4,31.65,NNW,346,0.0,0.0,70,0.00,BKN,,0.00,0.0,WeatherDisplay:10.37,2013-01-30 08:24:00,
2013-01-30 01:29:00,15.3,7.3,31.65,NNW,346,0.0,0.0,70,0.00,BKN,,0.00,0.0,WeatherDisplay:10.37,2013-01-30 08:29:00,
2013-01-30 01:34:00,15.2,7.2,31.65,NNW,346,0.0,0.0,70,0.00,BKN,,0.00,0.0,WeatherDisplay:10.37,2013-01-30 08:34:00,
2013-01-30 01:39:00,15.2,7.2,31.65,NNW,346,0.0,0.0,70,0.00,BKN,,0.00,0.0,WeatherDisplay:10.37,2013-01-30 08:39:00,
2013-01-30 01:44:00,15.2,7.2,31.65,NNW,346,0.0,0.0,70,0.00,BKN,,0.00,0.0,WeatherDisplay:10.37,2013-01-30 08:44:00,
2013-01-30 01:49:00,15.2,7.2,31.65,NNW,346,0.0,0.0,70,0.00,BKN,,0.00,0.0,WeatherDisplay:10.37,2013-01-30 08:49:00,
2013-01-30 01:54:00,15.2,7.2,31.65,NNW,346,0.0,0.0,70,0.00,BKN,,0.00,0.0,WeatherDisplay:10.37,2013-01-30 08:54:00,
2013-01-30 01:59:00,15.2,7.2,31.65,NNW,346,0.0,0.0,70,0.00,BKN,,0.00,0.0,WeatherDisplay:10.37,2013-01-30 08:59:00,
2013-01-30 02:04:00,15.2,7.2,31.65,NNW,346,0.0,0.0,70,0.00,BKN,,0.00,0.0,WeatherDisplay:10.37,2013-01-30 09:04:00,
2013-01-30 02:09:00,15.2,7.2,31.65,NNW,346,0.0,0.0,70,0.00,BKN,,0.00,0.0,WeatherDisplay:10.37,2013-01-30 09:09:00,
2013-01-30 02:14:00,14.8,8.0,30.96,NNW,343,0.0,2.0,74,0.00,BKN,,0.00,0.0,WeatherDisplay:10.37,2013-01-30 09:14:00,
2013-01-30 02:19:00,14.8,8.0,30.97,SSW,199,2.0,4.0,74,0.00,SCT,,0.00,0.0,WeatherDisplay:10.37,2013-01-30 09:19:00,
2013-01-30 02:24:00,14.8,8.0,30.54,South,186,2.0,5.0,74,0.00,SCT,,0.00,0.0,WeatherDisplay:10.37,2013-01-30 09:24:00,
2013-01-30 02:29:00,14.7,7.9,30.66,South,185,2.0,6.0,74,0.00,SCT,,0.00,0.0,WeatherDisplay:10.37,2013-01-30 09:29:00,
2013-01-30 02:34:00,14.7,7.9,30.66,South,182,1.0,4.0,74,0.00,SCT,,0.00,0.0,WeatherDisplay:10.37,2013-01-30 09:34:00,
2013-01-30 02:39:00,14.7,7.9,30.66,South,179,1.0,4.0,74,0.00,SCT,,0.00,0.0,WeatherDisplay:10.37,2013-01-30 09:39:00,
2013-01-30 02:44:00,14.6,8.1,30.66,South,180,0.0,3.0,75,0.00,SCT,,0.00,0.0,WeatherDisplay:10.37,2013-01-30 09:44:00,
2013-01-30 02:49:00,14.6,8.1,30.66,South,182,5.0,7.0,75,0.00,SCT,,0.00,0.0,WeatherDisplay:10.37,2013-01-30 09:49:00,
2013-01-30 02:55:00,14.7,8.2,30.66,South,183,3.0,6.0,75,0.00,SCT,,0.00,0.0,WeatherDisplay:10.37,2013-01-30 09:55:00,
2013-01-30 03:00:00,14.7,8.2,30.66,South,183,2.0,5.0,75,0.00,SCT,,0.00,0.0,WeatherDisplay:10.37,2013-01-30 10:00:00,
2013-01-30 03:05:00,14.7,8.2,30.81,South,176,0.0,3.0,75,0.00,SCT,,0.00,0.0,WeatherDisplay:10.37,2013-01-30 10:05:00,
2013-01-30 03:10:00,14.7,8.2,30.59,South,176,0.0,1.0,75,0.00,SCT,,0.00,0.0,WeatherDisplay:10.37,2013-01-30 10:10:00,
2013-01-30 03:15:00,14.6,8.1,30.58,South,176,0.0,2.0,75,0.00,SCT,,0.00,0.0,WeatherDisplay:10.37,2013-01-30 10:15:00,
2013-01-30 03:20:00,14.6,8.1,30.59,South,176,1.0,4.0,75,0.00,SCT,,0.00,0.0,WeatherDisplay:10.37,2013-01-30 10:20:00,
2013-01-30 03:30:00,14.5,8.0,31.49,South,176,0.0,1.0,75,0.00,SCT,,0.00,0.0,WeatherDisplay:10.37,2013-01-30 10:30:00,
2013-01-30 03:40:00,14.1,7.7,31.03,South,176,0.0,3.0,75,0.00,SCT,,0.00,0.0,WeatherDisplay:10.37,2013-01-30 10:40:00,
2013-01-30 03:50:00,13.8,7.3,30.70,South,176,0.0,2.0,75,0.00,SCT,,0.00,0.0,WeatherDisplay:10.37,2013-01-30 10:50:00,
2013-01-30 03:55:00,13.7,6.9,30.70,South,176,0.0,0.0,74,0.00,SCT,,0.00,0.0,WeatherDisplay:10.37,2013-01-30 10:55:00,
2013-01-30 04:00:00,13.5,7.0,30.70,South,176,0.0,0.0,75,0.00,SCT,,0.00,0.0,WeatherDisplay:10.37,2013-01-30 11:00:00,
2013-01-30 04:05:00,13.4,6.7,30.70,SSW,192,1.0,3.0,74,0.00,SCT,,0.00,0.0,WeatherDisplay:10.37,2013-01-30 11:05:00,
2013-01-30 04:10:00,13.2,6.5,30.56,WSW,246,0.0,3.0,74,0.00,SCT,,0.00,0.0,WeatherDisplay:10.37,2013-01-30 11:10:00,
2013-01-30 04:15:00,13.2,6.5,30.53,West,262,0.0,5.0,74,0.00,SCT,,0.00,0.0,WeatherDisplay:10.37,2013-01-30 11:15:00,
2013-01-30 04:20:00,13.4,6.7,30.53,WNW,282,1.0,5.0,74,0.00,SCT,,0.00,0.0,WeatherDisplay:10.37,2013-01-30 11:20:00,
2013-01-30 04:25:00,14.0,7.2,30.53,WNW,288,0.0,2.0,74,0.00,SCT,,0.00,0.0,WeatherDisplay:10.37,2013-01-30 11:25:00,
2013-01-30 04:30:00,14.4,7.4,30.53,WNW,290,0.0,2.0,73,0.00,SCT,,0.00,0.0,WeatherDisplay:10.37,2013-01-30 11:30:00,
2013-01-30 04:35:00,14.9,7.5,31.03,WNW,290,0.0,2.0,72,0.00,SCT,,0.00,0.0,WeatherDisplay:10.37,2013-01-30 11:35:00,
2013-01-30 04:40:00,15.3,7.8,31.23,WNW,290,0.0,0.0,72,0.00,SCT,,0.00,0.0,WeatherDisplay:10.37,2013-01-30 11:40:00,
2013-01-30 04:45:00,15.5,7.8,31.50,WNW,290,0.0,3.0,71,0.00,SCT,,0.00,0.0,WeatherDisplay:10.37,2013-01-30 11:45:00,
2013-01-30 04:50:00,15.7,7.6,31.50,WNW,283,1.0,4.0,70,0.00,SCT,,0.00,0.0,WeatherDisplay:10.37,2013-01-30 11:50:00,
2013-01-30 04:55:00,15.7,7.6,31.50,WSW,254,1.0,2.0,70,0.00,SCT,,0.00,0.0,WeatherDisplay:10.37,2013-01-30 11:55:00,
2013-01-30 05:00:00,15.7,7.6,31.50,SW,233,1.0,2.0,70,0.00,SCT,,0.00,0.0,WeatherDisplay:10.37,2013-01-30 12:00:00,
2013-01-30 05:05:00,15.7,7.6,31.50,SW,233,1.0,2.0,70,0.00,SCT,,0.00,0.0,WeatherDisplay:10.37,2013-01-30 12:05:00,
2013-01-30 05:10:00,15.7,7.6,31.50,SW,233,1.0,2.0,70,0.00,SCT,,0.00,0.0,WeatherDisplay:10.37,2013-01-30 12:10:00,
2013-01-30 05:15:00,16.2,6.5,31.03,SW,236,0.0,4.0,65,0.00,SCT,,0.00,0.0,WeatherDisplay:10.37,2013-01-30 12:15:00,
2013-01-30 05:20:00,16.3,5.9,31.50,WSW,240,2.0,4.0,63,0.00,FEW,,0.00,0.0,WeatherDisplay:10.37,2013-01-30 12:20:00,
2013-01-30 05:30:00,16.7,5.6,31.50,WSW,247,2.0,6.0,61,0.00,FEW,,0.00,0.0,WeatherDisplay:10.37,2013-01-30 12:30:00,
2013-01-30 05:35:00,16.8,5.3,31.50,WSW,251,2.0,4.0,60,0.00,FEW,,0.00,0.0,WeatherDisplay:10.37,2013-01-30 12:35:00,
2013-01-30 05:40:00,16.8,5.3,31.50,WSW,252,2.0,3.0,60,0.00,FEW,,0.00,0.0,WeatherDisplay:10.37,2013-01-30 12:40:00,
2013-01-30 05:50:00,17.2,5.0,31.50,WSW,252,2.0,3.0,58,0.00,FEW,,0.00,0.0,WeatherDisplay:10.37,2013-01-30 12:50:00,
2013-01-30 05:55:00,17.6,4.9,30.48,WSW,241,1.0,4.0,57,0.00,FEW,,0.00,0.0,WeatherDisplay:10.37,2013-01-30 12:55:00,
2013-01-30 06:00:00,17.7,4.6,30.51,SW,228,0.0,6.0,56,0.00,FEW,,0.00,0.0,WeatherDisplay:10.37,2013-01-30 13:00:00,
2013-01-30 06:05:00,17.7,4.7,30.43,SW,231,1.0,3.0,56,0.00,FEW,,0.00,0.0,WeatherDisplay:10.37,2013-01-30 13:05:00,
2013-01-30 06:10:00,17.8,4.4,30.41,SW,225,1.0,3.0,55,0.00,FEW,,0.00,0.0,WeatherDisplay:10.37,2013-01-30 13:10:00,
2013-01-30 06:15:00,17.9,4.4,30.41,SW,225,0.0,3.0,55,0.00,FEW,,0.00,0.0,WeatherDisplay:10.37,2013-01-30 13:15:00,
2013-01-30 06:20:00,18.0,4.5,30.41,WSW,237,1.0,5.0,55,0.00,FEW,,0.00,0.0,WeatherDisplay:10.37,2013-01-30 13:20:00,
2013-01-30 06:25:00,18.1,4.7,30.71,WSW,247,1.0,4.0,55,0.00,FEW,,0.00,0.0,WeatherDisplay:10.37,2013-01-30 13:25:00,
2013-01-30 06:30:00,18.3,4.8,30.71,WSW,248,1.0,3.0,55,0.00,FEW,,0.00,0.0,WeatherDisplay:10.37,2013-01-30 13:30:00,
2013-01-30 06:35:00,18.4,4.5,30.71,WSW,249,0.0,5.0,54,0.00,FEW,,0.00,0.0,WeatherDisplay:10.37,2013-01-30 13:35:00,
2013-01-30 06:40:00,18.7,4.8,30.47,WSW,251,0.0,2.0,54,0.00,FEW,,0.00,0.0,WeatherDisplay:10.37,2013-01-30 13:40:00,
2013-01-30 06:50:00,19.3,4.9,30.60,West,259,0.0,5.0,53,0.00,FEW,,0.00,0.0,WeatherDisplay:10.37,2013-01-30 13:50:00,
2013-01-30 06:55:00,19.7,4.9,30.60,West,267,1.0,7.0,52,0.00,FEW,,0.00,0.0,WeatherDisplay:10.37,2013-01-30 13:55:00,
2013-01-30 07:00:00,20.1,4.9,30.60,West,265,2.0,7.0,51,0.00,FEW,,0.00,0.0,WeatherDisplay:10.37,2013-01-30 14:00:00,
2013-01-30 07:05:00,20.8,5.1,30.60,West,260,2.0,7.0,50,0.00,FEW,,0.00,0.0,WeatherDisplay:10.37,2013-01-30 14:05:00,
2013-01-30 07:10:00,21.4,5.2,31.17,WSW,250,2.0,8.0,49,0.00,FEW,,0.00,0.0,WeatherDisplay:10.37,2013-01-30 14:10:00,
2013-01-30 07:15:00,21.8,5.1,31.17,WSW,251,0.0,6.0,48,0.00,FEW,,0.00,5.0,WeatherDisplay:10.37,2013-01-30 14:15:00,
2013-01-30 07:20:00,22.2,5.9,31.17,WSW,256,1.0,6.0,49,0.00,BKN,,0.00,7.0,WeatherDisplay:10.37,2013-01-30 14:20:00,
2013-01-30 07:25:00,22.4,5.7,31.17,WSW,250,0.0,2.0,48,0.00,BKN,,0.00,9.0,WeatherDisplay:10.37,2013-01-30 14:25:00,
2013-01-30 07:30:00,22.6,5.9,31.17,West,268,3.0,7.0,48,0.00,BKN,,0.00,11.0,WeatherDisplay:10.37,2013-01-30 14:30:00,
2013-01-30 07:35:00,23.0,5.7,31.17,WSW,243,2.0,6.0,47,0.00,BKN,,0.00,14.0,WeatherDisplay:10.37,2013-01-30 14:35:00,
2013-01-30 07:40:00,23.0,6.7,31.17,South,185,2.0,4.0,49,0.00,BKN,,0.00,23.0,WeatherDisplay:10.37,2013-01-30 14:40:00,
2013-01-30 07:45:00,22.9,6.5,31.17,South,170,0.0,7.0,49,0.00,BKN,,0.00,26.0,WeatherDisplay:10.37,2013-01-30 14:45:00,
2013-01-30 07:50:00,22.8,5.6,30.56,West,276,3.0,9.0,47,0.00,BKN,,0.00,30.0,WeatherDisplay:10.37,2013-01-30 14:50:00,
2013-01-30 07:55:00,23.1,5.4,30.56,West,275,1.0,7.0,46,0.00,BKN,,0.00,28.0,WeatherDisplay:10.37,2013-01-30 14:55:00,
2013-01-30 08:00:00,23.4,5.1,30.50,West,275,6.0,15.0,45,0.00,BKN,,0.00,30.0,WeatherDisplay:10.37,2013-01-30 15:00:00,
2013-01-30 08:05:00,23.9,5.6,30.71,WNW,291,3.0,9.0,45,0.00,BKN,,0.00,32.0,WeatherDisplay:10.37,2013-01-30 15:05:00,
2013-01-30 08:10:00,24.3,5.5,30.43,WNW,284,1.0,10.0,44,0.00,BKN,,0.00,130.0,WeatherDisplay:10.37,2013-01-30 15:10:00,
2013-01-30 08:15:00,24.7,5.8,30.42,West,272,3.0,8.0,44,0.00,BKN,,0.00,156.0,WeatherDisplay:10.37,2013-01-30 15:15:00,
2013-01-30 08:20:00,25.1,6.2,30.42,West,263,2.0,7.0,44,0.00,BKN,,0.00,118.0,WeatherDisplay:10.37,2013-01-30 15:20:00,
2013-01-30 08:25:00,25.3,6.4,30.88,WSW,258,2.0,5.0,44,0.00,BKN,,0.00,141.0,WeatherDisplay:10.37,2013-01-30 15:25:00,
2013-01-30 08:30:00,25.7,6.3,30.59,West,264,1.0,9.0,43,0.00,BKN,,0.00,130.0,WeatherDisplay:10.37,2013-01-30 15:30:00,
2013-01-30 08:35:00,26.1,6.7,30.40,WSW,255,1.0,6.0,43,0.00,BKN,,0.00,95.0,WeatherDisplay:10.37,2013-01-30 15:35:00,
2013-01-30 08:40:00,26.6,6.5,30.40,West,259,0.0,6.0,42,0.00,BKN,,0.00,257.0,WeatherDisplay:10.37,2013-01-30 15:40:00,
2013-01-30 08:45:00,27.0,6.9,30.40,West,271,0.0,5.0,42,0.00,BKN,,0.00,162.0,WeatherDisplay:10.37,2013-01-30 15:45:00,
2013-01-30 08:50:00,27.5,7.4,30.40,West,263,1.0,3.0,42,0.00,BKN,,0.00,162.0,WeatherDisplay:10.37,2013-01-30 15:50:00,
2013-01-30 08:55:00,28.1,7.4,30.40,West,264,5.0,9.0,41,0.00,BKN,,0.00,156.0,WeatherDisplay:10.37,2013-01-30 15:55:00,
2013-01-30 09:00:00,28.8,7.4,30.40,West,278,5.0,12.0,40,0.00,BKN,,0.00,135.0,WeatherDisplay:10.37,2013-01-30 16:00:00,
2013-01-30 09:05:00,29.3,7.9,30.40,NW,315,5.0,12.0,40,0.00,BKN,,0.00,171.0,WeatherDisplay:10.37,2013-01-30 16:05:00,
2013-01-30 09:10:00,29.7,8.3,31.78,NW,314,3.0,7.0,40,0.00,BKN,,0.00,162.0,WeatherDisplay:10.37,2013-01-30 16:10:00,
2013-01-30 09:15:00,30.1,8.6,31.78,NW,308,3.0,17.0,40,0.00,BKN,,0.00,371.0,WeatherDisplay:10.37,2013-01-30 16:15:00,
2013-01-30 09:20:00,30.5,9.0,31.78,NW,316,8.0,17.0,40,0.00,BKN,,0.00,334.0,WeatherDisplay:10.37,2013-01-30 16:20:00,
2013-01-30 09:30:00,31.3,10.3,31.78,NW,307,1.0,9.0,41,0.00,BKN,,0.00,346.0,WeatherDisplay:10.37,2013-01-30 16:30:00,
2013-01-30 09:35:00,31.8,10.7,31.78,NNW,334,0.0,3.0,41,0.00,BKN,,0.00,193.0,WeatherDisplay:10.37,2013-01-30 16:35:00,
2013-01-30 09:40:00,32.1,10.5,31.78,NNW,337,2.0,5.0,40,0.00,BKN,,0.00,121.0,WeatherDisplay:10.37,2013-01-30 16:40:00,
2013-01-30 09:45:00,32.3,10.1,31.78,WNW,288,2.0,7.0,39,0.00,BKN,,0.00,102.0,WeatherDisplay:10.37,2013-01-30 16:45:00,
2013-01-30 09:50:00,32.4,10.2,31.79,West,278,0.0,4.0,39,0.00,BKN,,0.00,105.0,WeatherDisplay:10.37,2013-01-30 16:50:00,
2013-01-30 09:55:00,32.4,9.6,31.79,NW,319,1.0,4.0,38,0.00,BKN,,0.00,97.0,WeatherDisplay:10.37,2013-01-30 16:55:00,
2013-01-30 10:00:00,32.3,9.5,31.79,NW,310,5.0,12.0,38,0.00,BKN,,0.00,156.0,WeatherDisplay:10.37,2013-01-30 17:00:00,
2013-01-30 10:05:00,32.4,9.5,31.79,NW,304,7.0,13.0,38,0.00,BKN,,0.00,160.0,WeatherDisplay:10.37,2013-01-30 17:05:00,
2013-01-30 10:10:00,32.5,10.2,31.79,WNW,302,8.0,15.0,39,0.00,BKN,,0.00,171.0,WeatherDisplay:10.37,2013-01-30 17:10:00,
2013-01-30 10:15:00,32.6,9.8,31.79,WNW,299,13.0,21.0,38,0.00,BKN,,0.00,181.0,WeatherDisplay:10.37,2013-01-30 17:15:00,
2013-01-30 10:25:00,32.9,11.2,31.79,WNW,303,10.0,23.0,40,0.00,BKN,,0.00,169.0,WeatherDisplay:10.37,2013-01-30 17:25:00,
2013-01-30 10:30:00,32.8,10.5,31.79,NW,308,6.0,22.0,39,0.00,BKN,,0.00,171.0,WeatherDisplay:10.37,2013-01-30 17:30:00,
2013-01-30 10:35:00,32.8,10.5,31.79,WNW,303,8.0,17.0,39,0.00,BKN,,0.00,186.0,WeatherDisplay:10.37,2013-01-30 17:35:00,
2013-01-30 10:40:00,32.9,10.6,31.79,NW,312,2.0,14.0,39,0.00,BKN,,0.00,193.0,WeatherDisplay:10.37,2013-01-30 17:40:00,
2013-01-30 10:45:00,33.1,10.8,31.79,NW,315,12.0,20.0,39,0.00,BKN,,0.00,272.0,WeatherDisplay:10.37,2013-01-30 17:45:00,
2013-01-30 10:50:00,33.3,10.4,31.79,NW,323,8.0,17.0,38,0.00,BKN,,0.00,188.0,WeatherDisplay:10.37,2013-01-30 17:50:00,
2013-01-30 10:55:00,33.7,11.9,31.79,NNW,329,6.0,13.0,40,0.00,BKN,,0.00,241.0,WeatherDisplay:10.37,2013-01-30 17:55:00,
2013-01-30 11:00:00,34.0,11.6,31.79,NNW,336,7.0,16.0,39,0.00,BKN,,0.00,200.0,WeatherDisplay:10.37,2013-01-30 18:00:00,
2013-01-30 11:05:00,34.1,11.7,31.79,NNW,345,9.0,18.0,39,0.00,BKN,,0.00,204.0,WeatherDisplay:10.37,2013-01-30 18:05:00,
2013-01-30 11:15:00,34.1,11.1,31.35,NW,312,9.0,21.0,38,0.00,BKN,,0.00,186.0,WeatherDisplay:10.37,2013-01-30 18:15:00,
2013-01-30 11:20:00,33.9,12.1,31.35,NW,323,9.0,25.0,40,0.00,BKN,,0.00,229.0,WeatherDisplay:10.37,2013-01-30 18:20:00,
2013-01-30 11:25:00,33.9,12.1,31.35,NNW,333,9.0,21.0,40,0.00,BKN,,0.00,278.0,WeatherDisplay:10.37,2013-01-30 18:25:00,
2013-01-30 11:30:00,33.8,13.7,31.35,NW,326,10.0,23.0,43,0.00,BKN,,0.00,258.0,WeatherDisplay:10.37,2013-01-30 18:30:00,
2013-01-30 11:35:00,33.9,13.2,31.77,WNW,294,10.0,23.0,42,0.00,BKN,,0.00,253.0,WeatherDisplay:10.37,2013-01-30 18:35:00,
2013-01-30 11:45:00,34.0,16.4,31.78,NW,304,14.0,32.0,48,0.00,BKN,,0.00,330.0,WeatherDisplay:10.37,2013-01-30 18:45:00,
2013-01-30 11:50:00,34.1,15.5,31.78,NW,304,12.0,23.0,46,0.00,BKN,,0.00,188.0,WeatherDisplay:10.37,2013-01-30 18:50:00,
2013-01-30 11:55:00,34.1,14.4,31.78,NW,311,9.0,20.0,44,0.00,BKN,,0.00,408.0,WeatherDisplay:10.37,2013-01-30 18:55:00,
2013-01-30 12:00:00,34.4,14.2,31.78,WNW,303,10.0,20.0,43,0.00,BKN,,0.00,209.0,WeatherDisplay:10.37,2013-01-30 19:00:00,
2013-01-30 12:05:00,34.5,13.7,31.78,WNW,297,9.0,20.0,42,0.00,BKN,,0.00,330.0,WeatherDisplay:10.37,2013-01-30 19:05:00,
2013-01-30 12:10:00,34.8,14.0,31.78,WNW,297,8.0,15.0,42,0.00,BKN,,0.00,236.0,WeatherDisplay:10.37,2013-01-30 19:10:00,
2013-01-30 12:15:00,34.9,14.1,31.78,WNW,295,13.0,25.0,42,0.00,BKN,,0.00,276.0,WeatherDisplay:10.37,2013-01-30 19:15:00,
2013-01-30 12:25:00,35.0,14.2,31.78,NW,318,8.0,20.0,42,0.00,BKN,,0.00,237.0,WeatherDisplay:10.37,2013-01-30 19:25:00,
2013-01-30 12:30:00,34.9,14.6,31.78,NW,315,12.0,25.0,43,0.00,BKN,,0.00,265.0,WeatherDisplay:10.37,2013-01-30 19:30:00,
2013-01-30 12:35:00,34.9,14.1,31.78,NW,310,9.0,22.0,42,0.00,BKN,,0.00,304.0,WeatherDisplay:10.37,2013-01-30 19:35:00,
2013-01-30 12:40:00,35.1,14.9,31.78,NW,310,8.0,20.0,43,0.00,BKN,,0.00,436.0,WeatherDisplay:10.37,2013-01-30 19:40:00,
2013-01-30 12:45:00,35.5,14.6,31.78,NW,305,9.0,24.0,42,0.00,BKN,,0.00,397.0,WeatherDisplay:10.37,2013-01-30 19:45:00,
2013-01-30 12:50:00,35.8,14.3,31.78,NW,307,7.0,21.0,41,0.00,BKN,,0.00,376.0,WeatherDisplay:10.37,2013-01-30 19:50:00,
2013-01-30 12:55:00,35.9,14.5,31.78,NW,316,8.0,24.0,41,0.00,BKN,,0.00,257.0,WeatherDisplay:10.37,2013-01-30 19:55:00,
2013-01-30 13:00:00,36.1,14.6,31.78,NW,306,14.0,25.0,41,0.00,BKN,,0.00,257.0,WeatherDisplay:10.37,2013-01-30 20:00:00,
2013-01-30 13:05:00,36.1,14.1,31.78,NW,313,7.0,21.0,40,0.00,BKN,,0.00,279.0,WeatherDisplay:10.37,2013-01-30 20:05:00,
2013-01-30 13:10:00,36.3,14.8,31.78,NW,320,8.0,14.0,41,0.00,BKN,,0.00,287.0,WeatherDisplay:10.37,2013-01-30 20:10:00,
2013-01-30 13:15:00,36.6,15.1,31.78,NW,321,5.0,18.0,41,0.00,BKN,,0.00,255.0,WeatherDisplay:10.37,2013-01-30 20:15:00,
2013-01-30 13:20:00,36.8,15.3,31.78,NNW,334,6.0,14.0,41,0.00,BKN,,0.00,322.0,WeatherDisplay:10.37,2013-01-30 20:20:00,
2013-01-30 13:25:00,37.1,16.1,31.78,North,350,8.0,16.0,42,0.00,BKN,,0.00,408.0,WeatherDisplay:10.37,2013-01-30 20:25:00,
2013-01-30 13:30:00,37.4,15.3,31.78,NW,323,6.0,16.0,40,0.00,BKN,,0.00,424.0,WeatherDisplay:10.37,2013-01-30 20:30:00,
2013-01-30 13:40:00,38.0,14.6,31.78,NW,322,10.0,20.0,38,0.00,BKN,,0.00,373.0,WeatherDisplay:10.37,2013-01-30 20:40:00,
2013-01-30 13:45:00,38.0,14.6,31.78,NW,305,12.0,20.0,38,0.00,BKN,,0.00,338.0,WeatherDisplay:10.37,2013-01-30 20:45:00,
2013-01-30 13:50:00,37.9,15.1,31.78,WNW,294,9.0,23.0,39,0.00,BKN,,0.00,258.0,WeatherDisplay:10.37,2013-01-30 20:50:00,
2013-01-30 13:55:00,37.8,15.0,31.78,WNW,300,6.0,18.0,39,0.00,BKN,,0.00,309.0,WeatherDisplay:10.37,2013-01-30 20:55:00,
2013-01-30 14:00:00,37.6,14.2,31.78,WNW,298,6.0,18.0,38,0.00,BKN,,0.00,130.0,WeatherDisplay:10.37,2013-01-30 21:00:00,
2013-01-30 14:05:00,37.2,14.5,31.78,WNW,303,6.0,17.0,39,0.00,BKN,,0.00,121.0,WeatherDisplay:10.37,2013-01-30 21:05:00,
2013-01-30 14:10:00,36.9,14.2,31.78,NW,307,8.0,16.0,39,0.00,BKN,,0.00,156.0,WeatherDisplay:10.37,2013-01-30 21:10:00,
2013-01-30 14:15:00,36.7,14.0,31.78,WNW,297,8.0,14.0,39,0.00,BKN,,0.00,169.0,WeatherDisplay:10.37,2013-01-30 21:15:00,
2013-01-30 14:20:00,36.7,14.6,31.78,WNW,292,7.0,17.0,40,0.00,BKN,,0.00,190.0,WeatherDisplay:10.37,2013-01-30 21:20:00,
2013-01-30 14:25:00,36.8,15.3,31.78,NW,310,3.0,14.0,41,0.00,BKN,,0.00,213.0,WeatherDisplay:10.37,2013-01-30 21:25:00,
2013-01-30 14:30:00,37.0,15.5,31.78,WNW,297,5.0,15.0,41,0.00,BKN,,0.00,213.0,WeatherDisplay:10.37,2013-01-30 21:30:00,
2013-01-30 14:35:00,37.3,15.1,31.78,WNW,294,7.0,13.0,40,0.00,BKN,,0.00,186.0,WeatherDisplay:10.37,2013-01-30 21:35:00,
2013-01-30 14:40:00,37.4,15.2,31.78,NW,315,7.0,15.0,40,0.00,BKN,,0.00,155.0,WeatherDisplay:10.37,2013-01-30 21:40:00,
2013-01-30 14:45:00,37.5,15.3,31.78,NW,308,3.0,15.0,40,0.00,BKN,,0.00,146.0,WeatherDisplay:10.37,2013-01-30 21:45:00,
2013-01-30 14:50:00,37.6,15.4,31.78,WNW,297,5.0,12.0,40,0.00,BKN,,0.00,167.0,WeatherDisplay:10.37,2013-01-30 21:50:00,
2013-01-30 14:55:00,37.7,14.9,31.78,WNW,295,6.0,11.0,39,0.00,BKN,,0.00,185.0,WeatherDisplay:10.37,2013-01-30 21:55:00,
2013-01-30 15:00:00,37.7,15.5,31.78,WNW,296,3.0,13.0,40,0.00,BKN,,0.00,167.0,WeatherDisplay:10.37,2013-01-30 22:00:00,
2013-01-30 15:05:00,37.8,15.6,31.78,NW,306,1.0,13.0,40,0.00,BKN,,0.00,144.0,WeatherDisplay:10.37,2013-01-30 22:05:00,
2013-01-30 15:10:00,37.9,15.7,31.78,NW,317,8.0,15.0,40,0.00,BKN,,0.00,134.0,WeatherDisplay:10.37,2013-01-30 22:10:00,
2013-01-30 15:15:00,37.9,15.1,31.78,NW,306,10.0,22.0,39,0.00,BKN,,0.00,142.0,WeatherDisplay:10.37,2013-01-30 22:15:00,
2013-01-30 15:20:00,37.9,15.1,31.78,NW,304,9.0,20.0,39,0.00,BKN,,0.00,132.0,WeatherDisplay:10.37,2013-01-30 22:20:00,
2013-01-30 15:24:00,37.9,15.1,31.78,NW,305,7.0,20.0,39,0.00,BKN,,0.00,116.0,WeatherDisplay:10.37,2013-01-30 22:24:00,
2013-01-30 15:30:00,37.8,15.6,31.78,NW,304,5.0,13.0,40,0.00,BKN,,0.00,95.0,WeatherDisplay:10.37,2013-01-30 22:30:00,
2013-01-30 15:35:00,37.8,15.6,31.78,NW,322,6.0,13.0,40,0.00,BKN,,0.00,97.0,WeatherDisplay:10.37,2013-01-30 22:35:00,
2013-01-30 15:40:00,37.7,16.1,31.78,NNW,338,3.0,12.0,41,0.00,BKN,,0.00,93.0,WeatherDisplay:10.37,2013-01-30 22:40:00,
2013-01-30 15:45:00,37.6,16.0,31.78,NNW,333,5.0,13.0,41,0.00,BKN,,0.00,98.0,WeatherDisplay:10.37,2013-01-30 22:45:00,
2013-01-30 15:50:00,37.6,16.0,31.78,NW,324,6.0,12.0,41,0.00,BKN,,0.00,132.0,WeatherDisplay:10.37,2013-01-30 22:50:00,
2013-01-30 15:55:00,37.7,16.1,31.78,NW,318,9.0,18.0,41,0.00,BKN,,0.00,62.0,WeatherDisplay:10.37,2013-01-30 22:55:00,
2013-01-30 16:00:00,37.7,15.5,31.78,NW,324,9.0,18.0,40,0.00,BKN,,0.00,49.0,WeatherDisplay:10.37,2013-01-30 23:00:00,
2013-01-30 16:05:00,37.5,15.3,31.78,NW,323,7.0,20.0,40,0.00,BKN,,0.00,37.0,WeatherDisplay:10.37,2013-01-30 23:05:00,
2013-01-30 16:10:00,37.3,15.2,31.78,NW,315,6.0,20.0,40,0.00,BKN,,0.00,39.0,WeatherDisplay:10.37,2013-01-30 23:10:00,
2013-01-30 16:15:00,37.1,15.5,31.78,NW,314,3.0,13.0,41,0.00,BKN,,0.00,30.0,WeatherDisplay:10.37,2013-01-30 23:15:00,
2013-01-30 16:20:00,36.9,15.4,31.78,NW,318,2.0,14.0,41,0.00,BKN,,0.00,23.0,WeatherDisplay:10.37,2013-01-30 23:20:00,
2013-01-30 16:30:00,36.5,15.6,31.78,NNW,334,1.0,5.0,42,0.00,BKN,,0.00,18.0,WeatherDisplay:10.37,2013-01-30 23:30:00,
2013-01-30 16:34:00,36.2,15.8,31.78,NW,325,0.0,4.0,43,0.00,BKN,,0.00,16.0,WeatherDisplay:10.37,2013-01-30 23:34:00,
2013-01-30 16:40:00,36.1,15.7,31.78,NW,312,1.0,2.0,43,0.00,BKN,,0.00,18.0,WeatherDisplay:10.37,2013-01-30 23:40:00,
2013-01-30 16:45:00,36.0,15.6,31.78,NW,312,0.0,4.0,43,0.00,BKN,,0.00,16.0,WeatherDisplay:10.37,2013-01-30 23:45:00,
2013-01-30 16:50:00,35.8,15.5,31.78,NW,312,0.0,3.0,43,0.00,BKN,,0.00,16.0,WeatherDisplay:10.37,2013-01-30 23:50:00,
2013-01-30 17:00:00,35.4,15.1,31.78,NW,312,1.0,3.0,43,0.00,BKN,,0.00,7.0,WeatherDisplay:10.37,2013-01-31 00:00:00,
2013-01-30 17:05:00,35.2,15.4,31.78,NW,312,0.0,3.0,44,0.00,BKN,,0.00,5.0,WeatherDisplay:10.37,2013-01-31 00:05:00,
2013-01-30 17:10:00,35.0,15.3,31.78,NW,312,0.0,1.0,44,0.00,BKN,,0.00,5.0,WeatherDisplay:10.37,2013-01-31 00:10:00,
2013-01-30 17:15:00,34.8,15.1,31.78,NW,312,1.0,5.0,44,0.01,RA,,0.01,0.0,WeatherDisplay:10.37,2013-01-31 00:15:00,
2013-01-30 17:20:00,34.4,15.2,31.78,NNW,328,1.0,5.0,45,0.00,RA,,0.01,0.0,WeatherDisplay:10.37,2013-01-31 00:20:00,
2013-01-30 17:25:00,34.4,15.2,31.78,NNW,333,1.0,4.0,45,0.00,RA,,0.01,0.0,WeatherDisplay:10.37,2013-01-31 00:25:00,
2013-01-30 17:30:00,34.2,15.0,31.78,NW,326,1.0,8.0,45,0.00,RA,,0.01,0.0,WeatherDisplay:10.37,2013-01-31 00:30:00,
2013-01-30 17:35:00,34.1,14.9,31.78,NW,326,2.0,9.0,45,0.00,RA,,0.01,0.0,WeatherDisplay:10.37,2013-01-31 00:35:00,
2013-01-30 17:40:00,34.0,15.4,31.78,NNW,328,3.0,8.0,46,0.00,RA,,0.01,0.0,WeatherDisplay:10.37,2013-01-31 00:40:00,
2013-01-30 17:45:00,33.9,15.3,31.78,NW,323,2.0,7.0,46,0.00,BKN,,0.01,0.0,WeatherDisplay:10.37,2013-01-31 00:45:00,
2013-01-30 17:50:00,33.9,15.3,31.78,NW,318,3.0,8.0,46,0.00,BKN,,0.01,0.0,WeatherDisplay:10.37,2013-01-31 00:50:00,
2013-01-30 17:55:00,33.8,15.7,31.78,NW,314,2.0,7.0,47,0.00,BKN,,0.01,0.0,WeatherDisplay:10.37,2013-01-31 00:55:00,
2013-01-30 18:05:00,33.7,15.6,31.78,NNW,336,6.0,10.0,47,0.00,BKN,,0.01,0.0,WeatherDisplay:10.37,2013-01-31 01:05:00,
2013-01-30 18:15:00,33.6,16.0,31.78,NW,321,2.0,6.0,48,0.00,BKN,,0.01,0.0,WeatherDisplay:10.37,2013-01-31 01:15:00,
2013-01-30 18:20:00,33.6,15.5,31.78,NW,314,3.0,12.0,47,0.00,BKN,,0.01,0.0,WeatherDisplay:10.37,2013-01-31 01:20:00,
2013-01-30 18:25:00,33.6,15.5,31.78,NW,316,1.0,8.0,47,0.00,BKN,,0.01,0.0,WeatherDisplay:10.37,2013-01-31 01:25:00,
2013-01-30 18:30:00,33.9,14.8,31.78,NW,317,6.0,17.0,45,0.00,BKN,,0.01,0.0,WeatherDisplay:10.37,2013-01-31 01:30:00,
2013-01-30 18:35:00,34.4,14.7,31.78,NW,307,8.0,20.0,44,0.00,BKN,,0.01,0.0,WeatherDisplay:10.37,2013-01-31 01:35:00,
2013-01-30 18:40:00,35.1,14.8,31.78,NW,317,8.0,20.0,43,0.00,BKN,,0.01,0.0,WeatherDisplay:10.37,2013-01-31 01:40:00,
2013-01-30 18:44:00,35.5,14.6,31.78,NW,318,3.0,13.0,42,0.00,BKN,,0.01,0.0,WeatherDisplay:10.37,2013-01-31 01:44:00,
2013-01-30 18:50:00,35.8,14.9,31.78,NW,312,7.0,13.0,42,0.00,BKN,,0.01,0.0,WeatherDisplay:10.37,2013-01-31 01:50:00,
2013-01-30 19:00:00,36.1,14.6,31.78,NW,315,13.0,17.0,41,0.00,BKN,,0.01,0.0,WeatherDisplay:10.37,2013-01-31 02:00:00,
2013-01-30 19:05:00,36.3,14.9,31.78,NW,318,7.0,12.0,41,0.00,BKN,,0.01,0.0,WeatherDisplay:10.37,2013-01-31 02:05:00,
2013-01-30 19:10:00,36.5,15.0,31.78,NW,304,3.0,18.0,41,0.00,BKN,,0.01,0.0,WeatherDisplay:10.37,2013-01-31 02:10:00,
2013-01-30 19:15:00,36.7,14.6,31.78,NW,312,8.0,15.0,40,0.00,BKN,,0.01,0.0,WeatherDisplay:10.37,2013-01-31 02:15:00,
2013-01-30 19:25:00,36.8,14.1,31.78,WNW,286,6.0,15.0,39,0.00,BKN,,0.01,0.0,WeatherDisplay:10.37,2013-01-31 02:25:00,
2013-01-30 19:30:00,36.9,14.8,31.78,NNW,327,3.0,14.0,40,0.00,BKN,,0.01,0.0,WeatherDisplay:10.37,2013-01-31 02:30:00,
2013-01-30 19:34:00,36.8,15.3,31.78,North,355,5.0,8.0,41,0.00,BKN,,0.01,0.0,WeatherDisplay:10.37,2013-01-31 02:34:00,
2013-01-30 19:40:00,36.7,14.6,31.78,NW,321,2.0,7.0,40,0.00,BKN,,0.01,0.0,WeatherDisplay:10.37,2013-01-31 02:40:00,
2013-01-30 19:44:00,36.6,14.5,31.78,NW,319,5.0,14.0,40,0.00,BKN,,0.01,0.0,WeatherDisplay:10.37,2013-01-31 02:44:00,
2013-01-30 19:49:00,36.5,14.4,31.78,NW,326,5.0,17.0,40,0.00,BKN,,0.01,0.0,WeatherDisplay:10.37,2013-01-31 02:49:00,
2013-01-30 19:54:00,36.5,14.4,31.78,NW,321,3.0,12.0,40,0.00,BKN,,0.01,0.0,WeatherDisplay:10.37,2013-01-31 02:54:00,
2013-01-30 19:59:00,36.5,15.0,31.78,NW,310,1.0,8.0,41,0.00,BKN,,0.01,0.0,WeatherDisplay:10.37,2013-01-31 02:59:00,
2013-01-30 20:04:00,36.4,14.9,31.78,NW,322,3.0,12.0,41,0.00,BKN,,0.01,0.0,WeatherDisplay:10.37,2013-01-31 03:04:00,
2013-01-30 20:10:00,36.3,14.8,31.78,NNW,333,5.0,12.0,41,0.00,BKN,,0.01,0.0,WeatherDisplay:10.37,2013-01-31 03:10:00,
2013-01-30 20:15:00,36.3,15.4,31.78,NW,325,5.0,17.0,42,0.00,BKN,,0.01,0.0,WeatherDisplay:10.37,2013-01-31 03:15:00,
2013-01-30 20:20:00,36.2,15.3,31.78,NW,322,7.0,15.0,42,0.00,BKN,,0.01,0.0,WeatherDisplay:10.37,2013-01-31 03:20:00,
2013-01-30 20:30:00,36.1,15.7,31.78,NW,319,5.0,9.0,43,0.00,BKN,,0.01,0.0,WeatherDisplay:10.37,2013-01-31 03:30:00,
2013-01-30 20:34:00,35.9,16.1,31.78,NW,319,5.0,9.0,44,0.00,BKN,,0.01,0.0,WeatherDisplay:10.37,2013-01-31 03:34:00,
2013-01-30 20:39:00,35.8,16.0,31.78,NW,318,3.0,9.0,44,0.00,BKN,,0.01,0.0,WeatherDisplay:10.37,2013-01-31 03:39:00,
2013-01-30 20:44:00,35.7,15.9,31.78,NW,315,5.0,14.0,44,0.00,BKN,,0.01,0.0,WeatherDisplay:10.37,2013-01-31 03:44:00,
2013-01-30 20:50:00,35.8,16.0,31.78,NW,308,3.0,12.0,44,0.00,BKN,,0.01,0.0,WeatherDisplay:10.37,2013-01-31 03:50:00,
2013-01-30 20:55:00,35.9,16.1,31.78,WNW,303,3.0,9.0,44,0.00,BKN,,0.01,0.0,WeatherDisplay:10.37,2013-01-31 03:55:00,
2013-01-30 21:00:00,36.0,15.6,31.78,WNW,292,5.0,12.0,43,0.00,BKN,,0.01,0.0,WeatherDisplay:10.37,2013-01-31 04:00:00,
2013-01-30 21:04:00,36.2,15.8,31.78,WNW,288,5.0,12.0,43,0.00,BKN,,0.01,0.0,WeatherDisplay:10.37,2013-01-31 04:04:00,
2013-01-30 21:10:00,36.4,16.5,31.78,WNW,295,2.0,12.0,44,0.00,BKN,,0.01,0.0,WeatherDisplay:10.37,2013-01-31 04:10:00,
2013-01-30 21:14:00,36.5,16.1,31.78,WNW,297,3.0,8.0,43,0.00,BKN,,0.01,0.0,WeatherDisplay:10.37,2013-01-31 04:14:00,
2013-01-30 21:19:00,36.5,16.1,31.78,WNW,285,2.0,5.0,43,0.00,BKN,,0.01,0.0,WeatherDisplay:10.37,2013-01-31 04:19:00,
2013-01-30 21:24:00,36.5,16.1,31.78,West,267,1.0,5.0,43,0.00,BKN,,0.01,0.0,WeatherDisplay:10.37,2013-01-31 04:24:00,
2013-01-30 21:30:00,36.3,16.5,31.78,West,274,2.0,5.0,44,0.00,BKN,,0.01,0.0,WeatherDisplay:10.37,2013-01-31 04:30:00,
2013-01-30 21:35:00,36.2,16.4,31.78,NW,310,3.0,6.0,44,0.00,BKN,,0.01,0.0,WeatherDisplay:10.37,2013-01-31 04:35:00,
2013-01-30 21:40:00,36.2,16.4,31.78,NW,318,1.0,8.0,44,0.00,BKN,,0.01,0.0,WeatherDisplay:10.37,2013-01-31 04:40:00,
2013-01-30 21:44:00,36.1,16.8,31.78,NW,318,5.0,15.0,45,0.00,BKN,,0.01,0.0,WeatherDisplay:10.37,2013-01-31 04:44:00,
2013-01-30 21:49:00,36.0,16.7,31.78,NW,318,3.0,8.0,45,0.00,BKN,,0.01,0.0,WeatherDisplay:10.37,2013-01-31 04:49:00,
2013-01-30 21:54:00,36.0,16.7,31.78,NW,304,3.0,10.0,45,0.00,BKN,,0.01,0.0,WeatherDisplay:10.37,2013-01-31 04:54:00,
2013-01-30 21:59:00,36.0,16.7,31.78,WNW,296,2.0,5.0,45,0.00,BKN,,0.01,0.0,WeatherDisplay:10.37,2013-01-31 04:59:00,
2013-01-30 22:05:00,35.9,16.6,31.78,NW,309,1.0,4.0,45,0.00,BKN,,0.01,0.0,WeatherDisplay:10.37,2013-01-31 05:05:00,
2013-01-30 22:10:00,35.9,16.6,31.78,NW,314,2.0,4.0,45,0.00,BKN,,0.01,0.0,WeatherDisplay:10.37,2013-01-31 05:10:00,
2013-01-30 22:15:00,35.8,16.5,31.78,NW,315,5.0,8.0,45,0.00,BKN,,0.01,0.0,WeatherDisplay:10.37,2013-01-31 05:15:00,
2013-01-30 22:20:00,35.7,16.4,31.78,NW,326,1.0,5.0,45,0.00,SCT,,0.01,0.0,WeatherDisplay:10.37,2013-01-31 05:20:00,
2013-01-30 22:24:00,35.6,16.3,31.78,NW,323,1.0,5.0,45,0.00,SCT,,0.01,0.0,WeatherDisplay:10.37,2013-01-31 05:24:00,
2013-01-30 22:30:00,35.5,16.2,31.78,West,280,2.0,5.0,45,0.00,SCT,,0.01,0.0,WeatherDisplay:10.37,2013-01-31 05:30:00,
2013-01-30 22:35:00,35.3,16.6,31.78,WSW,241,0.0,3.0,46,0.00,SCT,,0.01,0.0,WeatherDisplay:10.37,2013-01-31 05:35:00,
2013-01-30 22:40:00,35.1,16.4,31.78,SW,235,0.0,1.0,46,0.00,SCT,,0.01,0.0,WeatherDisplay:10.37,2013-01-31 05:40:00,
2013-01-30 22:44:00,34.7,16.0,31.78,SW,234,1.0,3.0,46,0.00,SCT,,0.01,0.0,WeatherDisplay:10.37,2013-01-31 05:44:00,
2013-01-30 22:49:00,34.4,15.7,31.78,SW,234,0.0,2.0,46,0.00,SCT,,0.01,0.0,WeatherDisplay:10.37,2013-01-31 05:49:00,
2013-01-30 22:54:00,33.9,15.3,31.78,SW,234,0.0,2.0,46,0.00,SCT,,0.01,0.0,WeatherDisplay:10.37,2013-01-31 05:54:00,
2013-01-30 22:59:00,33.5,15.4,31.78,SW,234,0.0,0.0,47,0.00,SCT,,0.01,0.0,WeatherDisplay:10.37,2013-01-31 05:59:00,
2013-01-30 23:04:00,33.0,14.9,31.78,SW,234,0.0,3.0,47,0.00,SCT,,0.01,0.0,WeatherDisplay:10.37,2013-01-31 06:04:00,
2013-01-30 23:09:00,32.5,15.0,31.78,SW,234,2.0,3.0,48,0.00,SCT,,0.01,0.0,WeatherDisplay:10.37,2013-01-31 06:09:00,
2013-01-30 23:14:00,31.9,14.9,31.78,WSW,258,2.0,6.0,49,0.00,SCT,,0.01,0.0,WeatherDisplay:10.37,2013-01-31 06:14:00,
2013-01-30 23:20:00,31.5,15.0,31.78,NW,320,1.0,6.0,50,0.00,SCT,,0.01,0.0,WeatherDisplay:10.37,2013-01-31 06:20:00,
2013-01-30 23:24:00,31.3,15.2,31.78,NNW,328,2.0,6.0,51,0.00,SCT,,0.01,0.0,WeatherDisplay:10.37,2013-01-31 06:24:00,
2013-01-30 23:30:00,31.2,15.2,31.78,NW,324,1.0,9.0,51,0.00,SCT,,0.01,0.0,WeatherDisplay:10.37,2013-01-31 06:30:00,
2013-01-30 23:34:00,31.5,15.9,31.78,NNW,332,2.0,9.0,52,0.00,SCT,,0.01,0.0,WeatherDisplay:10.37,2013-01-31 06:34:00,
2013-01-30 23:39:00,31.9,15.8,31.78,NW,319,5.0,14.0,51,0.00,SCT,,0.01,0.0,WeatherDisplay:10.37,2013-01-31 06:39:00,
2013-01-30 23:44:00,32.5,16.4,31.78,NW,315,6.0,10.0,51,0.00,SCT,,0.01,0.0,WeatherDisplay:10.37,2013-01-31 06:44:00,
2013-01-30 23:49:00,33.2,16.6,31.78,NNW,327,5.0,10.0,50,0.00,SCT,,0.01,0.0,WeatherDisplay:10.37,2013-01-31 06:49:00,
2013-01-30 23:54:00,34.0,16.8,31.78,NNW,330,5.0,10.0,49,0.00,SCT,,0.01,0.0,WeatherDisplay:10.37,2013-01-31 06:54:00,
2013-01-30 23:59:00,34.4,17.2,31.78,NNW,329,6.0,13.0,49,0.00,RA,,0.00,0.0,WeatherDisplay:10.37,2013-01-31 06:59:00,